Location: Skalnate Pleso
(49.1889°N, 20.2450°E)
Time: 14:46:08
(UTC+01:00)

SJ-12 - Pass Details

Date: 19 November 2019
Orbit: 570 x 584 km, 97.6° (Epoch: 06 December)

Event Time Altitude Azimuth Distance (km) Brightness Sun altitude
Rises 05:29:03 0° 9° (N) 2,823 7.4 -13.8°
Reaches altitude 10° 05:31:15 10° 4° (N) 1,918 6.5 -13.4°
Maximum altitude 05:35:17 50° 289° (WNW) 748 4.1 -12.8°
Drops below altitude 10° 05:39:17 10° 214° (SW) 1,903 6.4 -12.2°
Sets 05:41:28 0° 209° (SSW) 2,797 7.3 -11.8°
